Weather History for Valdosta Regional, GA

Change the Weather History Date:

Saturday, February 8, 2014

  Actual Average Record
Temperature  
Mean Temperature 55 °F 53 °F  
Max Temperature 65 °F 65 °F 65 °F (2014)
Min Temperature 45 °F 40 °F 45 °F (2014)
Degree Days  
Heating Degree Days 10 12  
Month to date heating degree days 40 105  
Since 1 July heating degree days 896 1174  
Growing Degree Days 5 (Base 50)    
Moisture  
Dew Point 43 °F    
Average Humidity 69    
Maximum Humidity 86    
Minimum Humidity 52    
Precipitation  
Precipitation 0.05 in - 0.05 in (2014)
Sea Level Pressure  
Sea Level Pressure 30.19 in    
Wind  
Wind Speed 3 mph (NNE)    
Max Wind Speed 12 mph    
Max Gust Speed 14 mph    
Visibility 9 miles    
Events Rain    
T = Trace of Precipitation, MM = Missing Value Source: NWS Daily Summary

Daily Weather History Graph

Daily Weather History Graph

Search for Another Location

Airport:

Trip Planner

Search our weather history database for the weather conditions in past years. The results will help you decide how hot, cold, wet, or windy it might be!

Date:

Astronomy

Feb. 08, 2014 Rise Set
Actual Time 7:19 AM EST 6:15 PM EST
Civil Twilight 6:54 AM EST 6:40 PM EST
Nautical Twilight 6:26 AM EST 7:08 PM EST
Astronomical Twilight 5:58 AM EST 7:36 PM EST
Moon 1:14 PM EST (2/8) 2:25 AM EST (2/8)
Length of Visible Light 11h 45m
Length of Day
10h 55m
Waxing Gibbous, 68% of the Moon is Illuminated
Feb 8
Waxing Gibbous
Feb 14
Full
Feb 22
Last Quarter
Mar 1
New
Mar 8
First Quarter

Hourly Weather History & Observations

Time (EST) Temp. Dew Point Humidity Pressure Visibility Wind Dir Wind Speed Gust Speed Precip Events Conditions
12:53 AM 54.0 °F 42.1 °F 64% 30.22 in 10.0 mi North 4.6 mph - N/A   Overcast
1:53 AM 54.0 °F 43.0 °F 66% 30.21 in 10.0 mi NE 4.6 mph - N/A   Overcast
2:53 AM 54.0 °F 41.0 °F 62% 30.19 in 10.0 mi ENE 5.8 mph - N/A   Overcast
3:53 AM 54.0 °F 39.9 °F 59% 30.19 in 10.0 mi ENE 3.5 mph - N/A   Overcast
4:12 AM 53.6 °F 39.2 °F 58% 30.16 in 10.0 mi NNE 3.5 mph - N/A   Mostly Cloudy
4:38 AM 53.6 °F 39.2 °F 58% 30.16 in 10.0 mi Calm Calm - N/A   Mostly Cloudy
4:53 AM 53.1 °F 39.9 °F 61% 30.19 in 10.0 mi Calm Calm - N/A   Overcast
5:53 AM 53.1 °F 39.9 °F 61% 30.18 in 10.0 mi NNE 3.5 mph - N/A   Overcast
6:53 AM 53.1 °F 41.0 °F 64% 30.22 in 10.0 mi Calm Calm - N/A   Overcast
7:53 AM 52.0 °F 43.0 °F 71% 30.25 in 7.0 mi North 9.2 mph - 0.01 in Rain Light Rain
8:53 AM 50.0 °F 45.0 °F 83% 30.23 in 9.0 mi NNE 6.9 mph - 0.04 in Rain Light Rain
9:53 AM 51.1 °F 45.0 °F 80% 30.27 in 9.0 mi NNE 6.9 mph - 0.00 in Rain Light Rain
10:53 AM 53.1 °F 46.0 °F 77% 30.22 in 10.0 mi NE 8.1 mph - 0.00 in   Overcast
11:53 AM 55.9 °F 46.0 °F 69% 30.21 in 10.0 mi NE 3.5 mph - N/A   Mostly Cloudy
12:53 PM 59.0 °F 46.9 °F 64% 30.19 in 10.0 mi NNE 8.1 mph - N/A   Mostly Cloudy
1:53 PM 62.1 °F 46.0 °F 56% 30.17 in 10.0 mi Variable 4.6 mph - N/A   Scattered Clouds
2:53 PM 62.1 °F 46.0 °F 56% 30.14 in 10.0 mi Calm Calm - N/A   Mostly Cloudy
3:53 PM 63.0 °F 46.0 °F 54% 30.13 in 10.0 mi North 4.6 mph - N/A   Mostly Cloudy
4:53 PM 64.0 °F 46.0 °F 52% 30.14 in 10.0 mi Variable 3.5 mph - N/A   Clear
5:53 PM 60.1 °F 46.9 °F 62% 30.15 in 10.0 mi North 3.5 mph - N/A   Clear
6:53 PM 54.0 °F 46.0 °F 75% 30.16 in 10.0 mi Calm Calm - N/A   Clear
7:53 PM 50.0 °F 44.1 °F 80% 30.18 in 10.0 mi Calm Calm - N/A   Clear
8:53 PM 48.9 °F 43.0 °F 80% 30.19 in 6.0 mi Calm Calm - N/A   Haze
9:53 PM 46.9 °F 42.1 °F 83% 30.19 in 6.0 mi Calm Calm - N/A   Haze
10:53 PM 46.9 °F 42.1 °F 83% 30.19 in 4.0 mi Calm Calm - N/A   Haze
11:53 PM 45.0 °F 39.9 °F 82% 30.18 in 4.0 mi Calm Calm - N/A   Haze